Location: ???????
(56.2167°N, 38.0500°E)
Time: 06:58:26
(UTC+00:00)

CZ-2D R/B - Pass Details

Date: 19 May 2025
Orbit: 790 x 841 km, 98.8° (Epoch: 16 June)

Event Time Altitude Azimuth Distance (km) Brightness Sun altitude
Rises 23:45:41 0° 18° (NNE) 3,404 7.1 -8.2°
Reaches altitude 10° 23:48:06 10° 22° (NNE) 2,469 6.2 -8.0°
Maximum altitude 23:53:31 60° 102° (ESE) 964 2.7 -7.6°
Drops below altitude 10° 23:58:55 10° 183° (S) 2,456 4.1 -7.1°
Enters shadow 00:00:23 - 185° (S) 3,026 4.6 -7.0°
